FW7517 Weather Reports


Display with metric or nautical units.
time (UTC)temp
F
wind
direction
speed
MPH
gust
MPH
rain 1hr
in
rain 24hr
in
rain mn
in
humidity
%
barometer
mb
20260510214001 48 270 4.0 15.0 0.00 0.00 0.00 55 1018.6
20260510213443 48 339 11.0 15.0 0.00 0.00 0.00 53 1018.6
20260510212936 48 315 6.0 10.0 0.00 0.00 0.00 53 1018.2
20260510212430 48 295 5.0 10.0 0.00 0.00 0.00 52 1018.2
20260510211924 49 265 2.0 9.0 0.00 0.00 0.00 51 1018.2
20260510211355 49 340 4.0 13.0 0.00 0.00 0.00 52 1018.2
20260510210830 48 322 4.0 13.0 0.00 0.00 0.00 53 1018.2
20260510210329 49 262 4.0 13.0 0.00 0.00 0.00 53 1017.9
20260510205823 48 262 4.0 13.0 0.00 0.00 0.00 52 1017.9
20260510205313 49 12 5.0 15.0 0.00 0.00 0.00 50 1017.9
20260510205031 48 340 5.0 15.0 0.00 0.00 0.00 52 1018.2
20260510204516 49 340 3.0 15.0 0.00 0.00 0.00 54 1017.9
20260510203723 49 341 4.0 14.0 0.00 0.00 0.00 55 1018.2
20260510203204 50 343 6.0 14.0 0.00 0.00 0.00 56 1017.9
20260510202648 48 338 9.0 16.0 0.00 0.00 0.00 60 1018.2
20260510202130 47 307 5.0 16.0 0.00 0.00 0.00 62 1017.9
20260510201621 46 312 7.0 16.0 0.00 0.00 0.00 64 1017.9
20260510201119 47 329 7.0 14.0 0.00 0.00 0.00 64 1017.9
20260510200824 47 261 9.0 11.0 0.00 0.00 0.00 62 1018.2
20260510200050 48 249 5.0 14.0 0.00 0.00 0.00 63 1017.9
20260510195543 47 303 6.0 14.0 0.00 0.00 0.00 58 1017.9
20260510195030 47 346 5.0 13.0 0.00 0.00 0.00 59 1017.9
20260510194530 48 256 7.0 13.0 0.00 0.00 0.00 58 1017.5
20260510194247 49 237 4.0 16.0 0.00 0.00 0.00 58 1017.5
20260510193522 49 351 11.0 17.0 0.00 0.00 0.00 57 1017.5
20260510193010 49 256 10.0 19.0 0.00 0.00 0.00 58 1017.5
20260510192501 49 15 13.0 19.0 0.00 0.00 0.00 59 1017.5
20260510191950 48 298 5.0 16.0 0.00 0.00 0.00 59 1017.5
20260510191436 48 328 7.0 14.0 0.00 0.00 0.00 63 1017.5
20260510190930 47 265 5.0 16.0 0.00 0.00 0.00 64 1017.5
20260510190640 47 316 10.0 16.0 0.00 0.00 0.00 64 1017.2
20260510185914 47 333 7.0 15.0 0.00 0.00 0.00 64 1017.5
20260510185403 46 329 5.0 15.0 0.00 0.00 0.00 65 1017.2
20260510184831 48 294 5.0 16.0 0.00 0.00 0.00 65 1017.2
20260510184323 47 318 4.0 17.0 0.00 0.00 0.00 65 1017.2
20260510183816 49 337 13.0 17.0 0.00 0.00 0.00 60 1016.9
20260510183307 47 337 2.0 17.0 0.00 0.00 0.00 62 1016.9
20260510182801 47 323 11.0 17.0 0.00 0.00 0.00 60 1016.9
20260510182739 48 335 8.0 21.0 0.00 0.00 0.00 59 1016.5
20260510181757 47 4 6.0 21.0 0.00 0.00 0.00 60 1016.5
20260510181250 48 336 9.0 13.0 0.00 0.00 0.00 59 1016.5
20260510180743 48 304 9.0 17.0 0.00 0.00 0.00 58 1016.5
20260510180231 48 231 5.0 17.0 0.00 0.00 0.00 57 1016.1
20260510175731 48 208 3.0 15.0 0.00 0.00 0.00 54 1016.1
20260510175223 49 349 9.0 15.0 0.00 0.00 0.00 50 1016.1
20260510174703 49 264 9.0 13.0 0.00 0.00 0.00 49 1016.1
20260510174138 50 248 9.0 15.0 0.00 0.00 0.00 48 1015.8
20260510173623 50 214 6.0 18.0 0.00 0.00 0.00 45 1015.8
20260510173057 51 306 9.0 18.0 0.00 0.00 0.00 46 1015.8
20260510172523 51 318 10.0 16.0 0.00 0.00 0.00 47 1015.8
20260510171955 50 16 6.0 16.0 0.00 0.00 0.00 47 1015.4
20260510171455 50 338 9.0 19.0 0.00 0.00 0.00 48 1015.8
20260510170926 50 320 6.0 19.0 0.00 0.00 0.00 48 1015.8
20260510170424 50 355 4.0 16.0 0.00 0.00 0.00 51 1015.8
20260510165904 50 340 10.0 16.0 0.00 0.00 0.00 49 1015.8
20260510165346 50 3 5.0 16.0 0.00 0.00 0.00 48 1015.4
20260510164814 49 244 4.0 16.0 0.00 0.00 0.00 51 1015.8
20260510164302 50 301 2.0 13.0 0.00 0.00 0.00 50 1015.8
20260510164023 49 311 7.0 17.0 0.00 0.00 0.00 52 1015.8
20260510163237 49 319 6.0 17.0 0.00 0.00 0.00 50 1015.8
20260510162730 48 347 8.0 16.0 0.00 0.00 0.00 52 1015.4
20260510162223 48 319 3.0 13.0 0.00 0.00 0.00 55 1015.8
20260510161653 49 279 9.0 10.0 0.00 0.00 0.00 54 1015.8
20260510161129 48 3 3.0 10.0 0.00 0.00 0.00 55 1015.8
20260510160630 49 158 4.0 9.0 0.00 0.00 0.00 53 1015.4
20260510160123 48 316 5.0 9.0 0.00 0.00 0.00 54 1015.4
20260510155616 49 302 4.0 14.0 0.00 0.00 0.00 55 1015.8
20260510155107 49 343 8.0 14.0 0.00 0.00 0.00 54 1015.4
20260510154600 48 1 7.0 10.0 0.00 0.00 0.00 56 1015.4
20260510154055 48 304 7.0 14.0 0.00 0.00 0.00 56 1015.4
20260510153557 47 338 3.0 11.0 0.00 0.00 0.00 58 1015.4
20260510153028 47 262 2.0 11.0 0.00 0.00 0.00 57 1015.4
20260510152527 47 327 3.0 11.0 0.00 0.00 0.00 57 1015.1
20260510152010 47 311 7.0 9.0 0.00 0.00 0.00 58 1015.1
20260510151502 49 322 6.0 9.0 0.00 0.00 0.00 55 1015.1
20260510150930 49 341 6.0 14.0 0.00 0.00 0.00 54 1015.1
20260510150422 48 311 6.0 14.0 0.00 0.00 0.00 54 1015.1
20260510145901 48 340 3.0 17.0 0.00 0.00 0.00 57 1015.1
20260510145330 47 235 7.0 17.0 0.00 0.00 0.00 57 1015.1
20260510144823 47 332 12.0 15.0 0.00 0.00 0.00 58 1015.1
20260510144323 46 348 4.0 10.0 0.00 0.00 0.00 58 1015.1
20260510143756 46 292 2.0 10.0 0.00 0.00 0.00 60 1014.7
20260510143254 46 351 5.0 8.0 0.00 0.00 0.00 60 1015.1
20260510142727 46 285 2.0 13.0 0.00 0.00 0.00 62 1014.7
20260510142223 47 262 5.0 13.0 0.00 0.00 0.00 59 1014.7
20260510141723 46 330 2.0 10.0 0.00 0.00 0.00 63 1014.7
20260510141216 46 333 7.0 10.0 0.00 0.00 0.00 62 1015.1
20260510140928 46 278 2.0 11.0 0.00 0.00 0.00 62 1014.7
20260510140155 45 260 4.0 11.0 0.00 0.00 0.00 61 1014.7
20260510135631 45 338 6.0 10.0 0.00 0.00 0.00 62 1014.7
20260510135356 45 317 8.0 10.0 0.00 0.00 0.00 60 1014.7
20260510134623 45 342 3.0 9.0 0.00 0.00 0.00 62 1015.1
20260510134114 45 243 3.0 9.0 0.00 0.00 0.00 63 1014.7
20260510133606 44 305 6.0 13.0 0.00 0.00 0.00 63 1014.7
20260510133056 44 308 7.0 15.0 0.00 0.00 0.00 64 1014.7
20260510132751 44 347 5.0 15.0 0.00 0.00 0.00 64 1015.1
20260510132004 44 349 6.0 10.0 0.00 0.00 0.00 66 1015.1
20260510131448 43 0 7.0 9.0 0.00 0.00 0.00 66 1015.1
20260510130929 44 322 6.0 7.0 0.00 0.00 0.00 67 1014.7
20260510130642 43 2 1.0 8.0 0.00 0.00 0.00 66 1014.7
20260510125916 43 9 4.0 10.0 0.00 0.00 0.00 67 1014.7
20260510125356 42 325 8.0 10.0 0.00 0.00 0.00 68 1014.7
20260510125111 42 318 4.0 9.0 0.00 0.00 0.00 71 1014.7
20260510124343 42 301 7.0 11.0 0.00 0.00 0.00 73 1014.7
20260510123831 42 318 7.0 11.0 0.00 0.00 0.00 73 1014.7
20260510123331 42 258 6.0 7.0 0.00 0.00 0.00 74 1014.4
20260510122824 41 352 6.0 9.0 0.00 0.00 0.00 75 1014.7
20260510122306 41 312 5.0 9.0 0.00 0.00 0.00 76 1014.4
20260510121737 41 280 4.0 9.0 0.00 0.00 0.00 77 1014.4
20260510121227 41 332 7.0 8.0 0.00 0.00 0.00 77 1014.4
20260510120656 40 336 4.0 7.0 0.00 0.00 0.00 78 1014.4
20260510120124 40 285 5.0 8.0 0.00 0.00 0.00 81 1014.1
20260510115555 40 324 2.0 8.0 0.00 0.00 0.00 82 1014.1
20260510115054 39 341 3.0 9.0 0.00 0.00 0.00 83 1014.1
20260510114526 39 335 2.0 9.0 0.00 0.00 0.00 84 1014.1
20260510114023 38 307 6.0 7.0 0.00 0.00 0.00 84 1013.7
20260510114012 38 3 4.0 7.0 0.00 0.00 0.00 85 1014.1
20260510113015 37 330 1.0 4.0 0.00 0.00 0.00 86 1013.7
20260510112502 37 357 2.0 4.0 0.00 0.00 0.00 87 1013.7
20260510111955 36 337 2.0 3.0 0.00 0.00 0.00 89 1013.4
20260510111431 35 306 1.0 2.0 0.00 0.00 0.00 90 1013.4
20260510110931 35 296 0.0 1.0 0.00 0.00 0.00 90 1013.4
20260510110423 34 288 1.0 1.0 0.00 0.00 0.00 91 1013.4
20260510105914 34 288 0.0 1.0 0.00 0.00 0.00 91 1013.4
20260510105408 34 289 0.0 2.0 0.00 0.00 0.00 91 1013.0
20260510105121 34 290 0.0 2.0 0.00 0.00 0.00 91 1013.0
20260510104323 33 291 1.0 2.0 0.00 0.00 0.00 91 1013.0
20260510103804 33 300 0.0 2.0 0.00 0.00 0.00 91 1013.0
20260510103248 33 297 0.0 2.0 0.00 0.00 0.00 91 1012.7
20260510102953 33 299 0.0 1.0 0.00 0.00 0.00 92 1012.4
20260510102221 33 300 0.0 1.0 0.00 0.00 0.00 91 1012.7
20260510101717 34 292 0.0 2.0 0.00 0.00 0.00 90 1012.7
20260510101157 34 295 0.0 2.0 0.00 0.00 0.00 89 1012.4
20260510100650 34 284 1.0 2.0 0.00 0.00 0.00 89 1012.4
20260510100143 34 277 2.0 2.0 0.00 0.00 0.00 89 1012.4
20260510095848 34 293 1.0 2.0 0.00 0.00 0.00 89 1012.4
20260510095129 34 286 1.0 2.0 0.00 0.00 0.00 88 1012.4
20260510094624 34 280 1.0 2.0 0.00 0.00 0.00 88 1012.4
20260510094102 34 294 1.0 2.0 0.00 0.00 0.00 87 1012.0
20260510093757 34 269 1.0 2.0 0.00 0.00 0.00 87 1012.0
20260510093025 34 293 0.0 1.0 0.00 0.00 0.00 87 1012.0
20260510092455 34 285 0.0 1.0 0.00 0.00 0.00 86 1011.3
20260510091923 34 290 0.0 3.0 0.00 0.00 0.00 86 1012.0
20260510091404 34 246 2.0 3.0 0.00 0.00 0.00 86 1012.0
20260510090837 34 300 2.0 2.0 0.00 0.00 0.00 86 1012.0
20260510090806 34 248 0.0 3.0 0.00 0.00 0.00 86 1012.0
20260510085823 34 276 1.0 3.0 0.00 0.00 0.00 86 1011.7
20260510085538 34 274 1.0 3.0 0.00 0.00 0.00 86 1011.7
20260510084816 34 301 1.0 3.0 0.00 0.00 0.00 87 1011.3
20260510084302 33 279 0.0 1.0 0.00 0.00 0.00 87 1011.3
20260510083755 33 297 1.0 1.0 0.00 0.00 0.00 87 1011.3
20260510083459 33 282 0.0 1.0 0.00 0.00 0.00 88 1011.3
20260510082730 34 281 0.0 1.0 0.00 0.00 0.00 87 1011.3
20260510082223 34 280 0.0 2.0 0.00 0.00 0.00 87 1011.0
20260510081718 34 281 0.0 2.0 0.00 0.00 0.00 87 1011.0
20260510081426 34 276 1.0 2.0 0.00 0.00 0.00 87 1011.0
20260510080655 34 282 1.0 2.0 0.00 0.00 0.00 87 1011.0
20260510080124 34 275 2.0 2.0 0.00 0.00 0.00 87 1011.0
20260510075603 33 253 1.0 2.0 0.00 0.00 0.00 88 1011.0
20260510075048 33 296 0.0 1.0 0.00 0.00 0.00 88 1011.0
20260510074532 33 298 0.0 1.0 0.00 0.00 0.00 88 1010.6
20260510074020 33 297 0.0 0.0 0.00 0.00 0.00 88 1010.6
20260510073517 33 306 0.0 1.0 0.00 0.00 0.00 87 1011.0
20260510072957 33 305 0.0 1.0 0.00 0.00 0.00 87 1010.2
20260510072450 34 297 1.0 1.0 0.00 0.00 0.00 86 1010.2
20260510071943 34 286 0.0 1.0 0.00 0.00 0.00 86 1010.6
20260510071431 34 297 0.0 2.0 0.00 0.00 0.00 85 1010.6
20260510070931 34 291 1.0 1.0 0.00 0.00 0.00 86 1010.2
20260510070424 34 295 0.0 1.0 0.00 0.00 0.00 86 1010.2
20260510065913 35 295 0.0 1.0 0.00 0.00 0.00 86 1010.2
20260510065355 35 295 0.0 1.0 0.00 0.00 0.00 84 1010.2
20260510064823 36 295 0.0 1.0 0.00 0.00 0.00 82 1010.2
20260510064315 37 296 0.0 1.0 0.00 0.00 0.00 81 1010.2
20260510063803 37 300 0.0 1.0 0.00 0.00 0.00 81 1010.2
20260510063255 37 318 0.0 2.0 0.00 0.00 0.00 80 1009.9
20260510062955 38 325 2.0 7.0 0.00 0.00 0.00 78 1009.9
20260510062221 38 300 2.0 7.0 0.00 0.00 0.00 78 1009.9
20260510061716 39 323 2.0 4.0 0.00 0.00 0.00 77 1009.6
20260510061156 38 321 3.0 7.0 0.00 0.00 0.00 77 1009.9
20260510060628 39 317 4.0 7.0 0.00 0.00 0.00 76 1009.9
20260510060123 39 312 2.0 7.0 0.00 0.00 0.00 76 1009.9
20260510055555 39 291 4.0 6.0 0.00 0.00 0.00 75 1009.6
20260510055030 39 351 1.0 6.0 0.00 0.00 0.00 76 1009.9
20260510054529 39 286 2.0 6.0 0.00 0.00 0.00 75 1009.9
20260510054024 39 336 3.0 6.0 0.00 0.00 0.00 74 1009.9
20260510053513 39 322 2.0 7.0 0.00 0.00 0.00 73 1009.9
20260510053006 39 357 2.0 7.0 0.00 0.00 0.00 73 1009.6
20260510052456 39 332 3.0 9.0 0.00 0.00 0.00 72 1009.6
20260510051923 39 349 2.0 9.0 0.00 0.00 0.00 70 1009.6
20260510051402 40 306 2.0 9.0 0.00 0.00 0.00 70 1009.6
20260510050851 40 323 2.0 14.0 0.00 0.00 0.00 70 1009.6
20260510050340 40 314 6.0 14.0 0.00 0.00 0.00 69 1009.6
20260510045832 40 293 2.0 11.0 0.00 0.00 0.00 70 1009.2
20260510045552 40 319 8.0 10.0 0.00 0.00 0.00 69 1009.2
20260510044757 40 296 5.0 9.0 0.00 0.00 0.00 69 1008.9
20260510044230 40 0 4.0 7.0 0.00 0.00 0.00 68 1009.2
20260510043724 40 325 2.0 9.0 0.00 0.00 0.00 68 1009.2
20260510043431 40 332 5.0 9.0 0.00 0.00 0.00 68 1008.9
20260510042702 40 333 2.0 10.0 0.00 0.00 0.00 70 1008.9
20260510042141 40 342 4.0 8.0 0.00 0.00 0.00 70 1008.9
20260510041624 40 321 6.0 9.0 0.00 0.00 0.00 70 1008.9
20260510041319 41 277 6.0 9.0 0.00 0.00 0.00 69 1009.2
20260510040749 40 289 3.0 9.0 0.00 0.00 0.00 70 1009.2
20260510040022 40 311 2.0 3.0 0.00 0.00 0.00 71 1008.9
20260510035510 40 317 1.0 7.0 0.00 0.00 0.00 70 1008.9
20260510035003 41 332 3.0 7.0 0.00 0.00 0.00 69 1008.9
20260510034457 41 274 3.0 8.0 0.00 0.00 0.00 68 1008.9
20260510034206 41 336 4.0 9.0 0.00 0.00 0.00 68 1008.5
20260510033433 42 359 4.0 9.0 0.00 0.00 0.00 67 1008.5
20260510032923 42 307 3.0 8.0 0.00 0.00 0.00 69 1008.5
20260510032355 42 323 5.0 7.0 0.00 0.00 0.00 70 1008.5
20260510032041 42 332 4.0 9.0 0.00 0.00 0.00 71 1008.2
20260510031315 42 324 2.0 9.0 0.00 0.00 0.00 70 1008.5
20260510030809 42 296 3.0 8.0 0.00 0.00 0.00 71 1008.5
20260510030259 42 348 2.0 8.0 0.00 0.00 0.00 71 1008.5
20260510030001 42 326 4.0 9.0 0.00 0.00 0.00 71 1008.5
20260510025208 42 312 5.0 9.0 0.00 0.00 0.00 70 1008.5
20260510024643 42 314 3.0 9.0 0.00 0.00 0.00 69 1008.2
20260510024345 42 301 6.0 8.0 0.00 0.00 0.00 70 1008.5
20260510023558 43 267 2.0 6.0 0.00 0.00 0.00 70 1008.5
20260510023050 43 338 4.0 7.0 0.00 0.00 0.00 69 1008.2
20260510022522 43 326 3.0 9.0 0.00 0.00 0.00 68 1008.2
20260510022009 43 332 4.0 9.0 0.00 0.00 0.00 69 1008.2
20260510021503 44 343 6.0 9.0 0.00 0.00 0.00 68 1008.2
20260510020939 44 333 6.0 9.0 0.00 0.00 0.00 67 1008.2
20260510020430 44 313 8.0 11.0 0.00 0.00 0.00 66 1007.9
20260510015902 44 296 3.0 11.0 0.00 0.00 0.00 66 1007.9
20260510015356 44 353 8.0 11.0 0.00 0.00 0.00 65 1007.9
20260510014855 44 299 9.0 11.0 0.00 0.00 0.00 65 1007.9
20260510014605 44 301 5.0 9.0 0.00 0.00 0.00 66 1007.5
20260510013824 45 4 3.0 9.0 0.00 0.00 0.00 67 1007.2
20260510013305 45 30 4.0 10.0 0.00 0.00 0.00 66 1007.2
20260510012801 45 340 7.0 11.0 0.00 0.00 0.00 65 1007.2
20260510012232 45 330 7.0 11.0 0.00 0.00 0.00 65 1006.8
20260510011727 45 332 3.0 9.0 0.00 0.00 0.00 65 1006.8
20260510011204 46 314 6.0 11.0 0.00 0.00 0.00 65 1006.8
20260510010852 46 314 5.0 9.0 0.00 0.00 0.00 66 1006.5
20260510010123 46 350 3.0 8.0 0.00 0.00 0.00 67 1006.5
20260510005610 46 354 4.0 13.0 0.00 0.00 0.00 67 1006.5
20260510005102 46 339 8.0 13.0 0.00 0.00 0.00 66 1006.2
20260510004539 47 317 3.0 11.0 0.00 0.00 0.00 66 1006.2
20260510004024 47 340 6.0 13.0 0.00 0.00 0.00 65 1006.5
20260510003453 47 322 10.0 11.0 0.00 0.00 0.00 64 1005.8
20260510003150 47 297 3.0 8.0 0.00 0.00 0.00 65 1006.2
20260510002402 48 295 6.0 11.0 0.00 0.00 0.00 63 1005.5
20260510001849 48 300 2.0 18.0 0.00 0.00 0.00 63 1005.8
20260510001806 48 319 7.0 18.0 0.00 0.00 0.00 61 1005.1
20260510000821 49 315 8.0 14.0 0.00 0.00 0.00 61 1005.5
20260510000304 49 356 4.0 14.0 0.00 0.00 0.00 62 1005.1
20260509235739 49 340 3.0 13.0 0.00 0.00 0.00 62 1005.1
20260509235500 49 309 10.0 13.0 0.00 0.00 0.00 60 1004.7
20260509234703 50 8 10.0 19.0 0.00 0.00 0.00 58 1004.4
20260509234157 50 341 11.0 19.0 0.00 0.00 0.00 54 1004.4
20260509233656 51 282 9.0 18.0 0.00 0.00 0.00 50 1004.4
20260509233150 52 353 6.0 15.0 0.00 0.00 0.00 48 1004.0
20260509232624 53 298 5.0 15.0 0.00 0.00 0.00 48 1004.0
20260509232056 53 20 9.0 15.0 0.00 0.00 0.00 47 1004.0
20260509231550 53 306 6.0 19.0 0.00 0.00 0.00 48 1004.0
20260509231305 53 319 6.0 19.0 0.00 0.00 0.00 47 1004.0
20260509230743 52 281 7.0 19.0 0.00 0.00 0.00 47 1004.0
20260509225959 53 327 13.0 19.0 0.00 0.00 0.00 47 1003.7
20260509225448 53 343 6.0 17.0 0.00 0.00 0.00 46 1003.7
20260509224923 53 306 6.0 16.0 0.00 0.00 0.00 47 1003.4
20260509224411 53 309 9.0 17.0 0.00 0.00 0.00 45 1003.4
20260509223902 54 355 8.0 17.0 0.00 0.00 0.00 46 1003.4
20260509223339 54 312 7.0 14.0 0.00 0.00 0.00 44 1003.0
20260509222831 55 315 6.0 19.0 0.00 0.00 0.00 42 1002.7
20260509222317 54 299 4.0 27.0 0.00 0.00 0.00 42 1003.0
20260509221756 55 355 8.0 27.0 0.00 0.00 0.00 41 1003.0
20260509221515 54 19 6.0 18.0 0.00 0.00 0.00 42 1003.0
20260509220743 54 279 8.0 18.0 0.00 0.00 0.00 43 1002.7
20260509220224 54 2 10.0 17.0 0.00 0.00 0.00 43 1002.3
20260509215705 53 347 11.0 18.0 0.00 0.00 0.00 44 1002.3
20260509215200 55 298 12.0 22.0 0.00 0.00 0.00 43 1002.3
20260509214633 56 318 9.0 23.0 0.00 0.00 0.00 42 1002.0